Home   Weather   Périgueux   Past weeks

Flag for France Past Weather in Périgueux, Aquitaine, France — Yesterday and Last 2 Weeks

57 °F


Feels Like: 57 °F
Forecast: 36 / 68 °F
Wind: 2 mph from North

Location: Bergerac Airport

Current Time: Oct 28, 2016 at 2:23:35 PM

Latest Report: Oct 28, 2016 at 2:00 PM

Visibility: 10 mi

Pressure: 30.48 "Hg

Humidity: 77%

Dew Point: 50 °F

Location of PérigueuxLocation

Past Weather in Périgueux — Graph


Périgueux Temperature Yesterday

Maximum temperature yesterday: 66 °F (at 4:00 PM)
Minimum temperature yesterday: 39 °F (at 6:30 AM)
Average temperature yesterday: 49 °F

High & Low Weather Summary for the Past Weeks

High73 °F (Oct 15, 4:30 PM)100% (Oct 13, 9:30 PM)30.51 "Hg (Oct 13, 9:30 PM)
Low30 °F (Oct 22, 7:30 AM)38% (Oct 15, 4:30 PM)29.53 "Hg (Oct 13, 5:00 PM)
Average53 °F87%30.05 "Hg
* Reported Oct 13 1:00 PM — Oct 28 1:00 PM, Périgueux, Weather by CustomWeather, © 2016

Note: Actual official high and low records may vary slightly from our data, if they occured in-between our weather recording intervals... More about our weather records


Périgueux Weather History for the Previous 24 Hours

Scroll right to see more
Time TempWeatherWind HumidityBarometerVisibility
1:00 PM
Fri, Oct 28
52 °FPassing clouds.3 mph94%30.51 "HgN/A
12:30 PM52 °FLow clouds.3 mph88%30.51 "HgN/A
12:00 PM48 °FPartly sunny.2 mph100%30.51 "Hg4 mi
11:30 AM46 °FLow clouds.3 mph100%30.51 "Hg4 mi
11:00 AM45 °FFog.3 mph93%30.51 "Hg1 mi
10:30 AM43 °FFog.3 mph100%30.51 "Hg0 mi
10:00 AM41 °FFog.3 mph100%30.48 "Hg0 mi
9:30 AM41 °FFog.3 mph100%30.48 "Hg1 mi
9:00 AM41 °FFog.3 mph100%30.48 "Hg0 mi
8:30 AM39 °FFog.3 mph100%30.48 "Hg1 mi
8:00 AM39 °FFog.No wind100%30.45 "Hg1 mi
7:30 AM39 °FLow clouds.1 mph93%30.45 "Hg4 mi
7:00 AM37 °FFog.2 mph93%30.45 "Hg3 mi
6:30 AM37 °FFog.No wind100%30.45 "Hg2 mi
6:00 AM39 °FFog.2 mph93%30.45 "Hg1 mi
5:30 AM39 °FFog.1 mph93%30.45 "Hg0 mi
5:00 AM37 °FFog.2 mph100%30.45 "Hg1 mi
4:30 AM37 °FFog.2 mph100%30.45 "Hg0 mi
4:00 AM39 °FFog.2 mph93%30.45 "Hg0 mi
3:30 AM37 °FFog.2 mph100%30.42 "Hg1 mi
3:00 AM37 °FFog.No wind100%30.45 "Hg1 mi
2:30 AM39 °FFog.2 mph93%30.45 "Hg0 mi
2:00 AM39 °FDense fog.2 mph100%30.45 "Hg1 mi
1:30 AM39 °FFog.1 mph100%30.45 "Hg1 mi
1:00 AM41 °FFog.No wind93%30.45 "Hg1 mi
12:30 AM41 °FFog.3 mph93%30.45 "Hg2 mi
12:00 AM41 °FFog.No wind93%30.45 "Hg1 mi
11:30 PM
Thu, Oct 27
43 °FLight fog.1 mph100%30.45 "Hg1 mi
11:00 PM43 °FFog.No wind100%30.42 "Hg3 mi
10:30 PM43 °FClear.No wind93%30.42 "Hg4 mi
10:00 PM45 °FClear.No wind93%30.42 "Hg10 mi
9:30 PM46 °FClear.No wind93%30.42 "Hg10 mi
9:00 PM46 °FClear.No wind93%30.42 "Hg10 mi
8:30 PM48 °FClear.No wind87%30.42 "Hg10 mi
8:00 PM50 °FClear.No wind88%30.42 "Hg10 mi
7:30 PM54 °FClear.No wind82%30.42 "Hg10 mi
7:00 PM59 °FClear.1 mph63%30.42 "Hg10 mi
6:30 PM64 °FSunny.2 mph56%30.42 "Hg10 mi
6:00 PM64 °FSunny.1 mph56%30.39 "Hg10 mi
5:30 PM64 °FPassing clouds.3 mph56%30.39 "HgN/A
5:00 PM66 °FPassing clouds.5 mph52%30.42 "HgN/A
4:30 PM66 °FPassing clouds.7 mph52%30.42 "HgN/A
4:00 PM66 °FPassing clouds.7 mph52%30.42 "HgN/A
3:30 PM64 °FSunny.7 mph56%30.42 "Hg10 mi
3:00 PM64 °FSunny.2 mph60%30.42 "Hg10 mi
2:30 PM64 °FSunny.No wind60%30.42 "Hg10 mi
2:00 PM63 °FSunny.3 mph68%30.45 "Hg10 mi
Weather by CustomWeather, © 2016

See weather overviewHow to use our weather pages